{"data":{"norad_id":63645,"epoch":"2026-09-20T12:37:18.784704Z","epoch_age_seconds":150353,"freshness":"FRESH","line1":"1 63645U 25083M   26263.52591186 -.00006708  00000+0 -23434-3 0  9999","line2":"2 63645  42.9992 344.9465 0000342 252.1097 107.9717 15.27600290 79898","mean_motion":15.2760029,"eccentricity":3.42e-5,"inclination_deg":42.9992,"raan_deg":344.9465,"arg_perigee_deg":252.1097,"mean_anomaly_deg":107.9717,"bstar":-0.00023434,"rev_number":7989,"period_min":94.265496637213,"perigee_km":482.75369066617,"apogee_km":483.22299163951,"semimajor_km":6861.1253411528,"source":"CELESTRAK","updated_at":"2026-09-21T09:00:35.052834Z"}}